STARLINK-32367, 60919

Orbit data source: Space-Track

STARLINK-32367, 60919 is a payload satellite owned by SpaceX/Seattle (US) in LEO that was launched on Sat, 31 Aug 2024 UTC via an FALCON 9 launch vehicle from the Air Force Eastern Test Range (AFETR). Payload-class satellites include a variety of spacecraft equipped with specific instruments for various scientific and technological missions. These include communications satellites like Starlink; space stations such as the ISS; scientific satellites like the Hubble; Earth observation satellites from companies like Planet Labs, Umbra, and HawkEye 360; GPS; miniature CubeSats for education and research; and military/defense satellites.

Loading next visibility...
Identifier
60919, 2024-154S
Orbit
LEO
Country
Flag of USUS
Related business
Manufacturer
SpaceX/Seattle
Mission
Operational Commercial Communications
Bus & Motor
STARLINK V2M, Unknown motor
Mass
730 kg wet, ~700 kg dry
Launch date (UTC)
2024-08-31 (2 years ago)
Launch vehicle
FALCON 9
Launch site
Air Force Eastern Test Range (AFETR)
Object type
Payload
Rocket body
Debris
Shape & HBR
Box + 2 Pan, 17.7 m
Radar Cross Section
33.884 m², Large (>1 m²)

Expand to show TLE details & history
Last TLE update: 13 hours ago

TLE from 13 hours ago
0 STARLINK-32367
1 60919U 24154S   26129.91603275 -.00001886  00000-0 -51617-4 0  9993
2 60919  53.1615 359.1220 0001227  71.1773 288.9361 15.30179999 95710
Epoch: 2026-05-09T21:59Z
TLE epoch observation values (Epoch: 2026-05-09T21:59:05.229Z)
Latitude
-0.00001°
Longitude
161.6236°
Altitude
475.902 km
Speed
7.629 km/s
True Right ascension
23h 56m 29s
True Declination
0° 00' 00"
Sunlit
Object was in daylight at epoch
Visualization orbit readout
Latitude
Unknown
Longitude
Unknown
Altitude
Unknown
Speed
Unknown
Apparent Right ascension
Unknown
Apparent Declination
Unknown
Sunlit
N/A
Visualization observer readout
Local Sidereal Time
18:57:44
Azimuth
Unknown
Elevation
Unknown
Doppler factor
Unknown
Orbital elements
Apogee altitude
476.372 km
Perigee altitude
474.69 km
Semi-major axis
6,853.668 km
Eccentricity
0.00012
Inclination
53.1615°
RAAN
359.122°
Arg. of periapsis
71.1773°
True anomaly
288.9228°
Mean anomaly
288.9361°
Eccentric anomaly
288.92945°
Mean motion
3.82524 °/min
Orbital period
94.11 mins
BSTAR
-0.000051617
Loading maneuver chart data...
Computing Atmospheric mass density...
Loading historical data...
Loading historical data...
Loading historical data...
Loading historical data...
Loading historical data...
Loading historical data...
Loading historical data...

Documentation

Showing up to 5 results
|